"TOA5","C150","CR1000","43625","CR1000.Std.22","CPU:247411_r6_eppley3.CR1","52881","eppley_data"
"TIMESTAMP","RECORD","PIR_net","Case_Temp_K","PSP_in_Avg","PSP_in_Min","PSP_in_Max","PIR_in_Avg","PIR_in_Min","PIR_in_Max","wd_2minavg","ws_2minavg","AirTC","RH","BP_mbar"
"TS","RN","","","","","","","","","","","Deg C","Percent","Millibar"
"","","Smp","Smp","Avg","Min","Max","Avg","Min","Max","Smp","Smp","Smp","Smp","Smp"
"2017-07-19 02:10:00",80850,"NAN","NAN","NAN","NAN","NAN","NAN","NAN","NAN",75.71,1.685,-39.86,57.17,973
"2017-07-19 02:20:00",80851,"NAN","NAN","NAN","NAN","NAN","NAN","NAN","NAN",84.6,1.891,-39.86,58.34,973
"2017-07-19 02:30:00",80852,"NAN","NAN","NAN","NAN","NAN","NAN","NAN","NAN",75.62,2.003,-39.86,59.47,973
"2017-07-19 02:40:00",80853,"NAN","NAN","NAN","NAN","NAN","NAN","NAN","NAN",54.12,2.88,-39.86,60.95,973
"2017-07-19 02:50:00",80854,"NAN","NAN","NAN","NAN","NAN","NAN","NAN","NAN",56.49,3.042,-39.52,62.59,973
"2017-07-19 03:00:00",80855,"NAN","NAN","NAN","NAN","NAN","NAN","NAN","NAN",47.9,2.592,-39.38,62.24,972
"2017-07-19 03:10:00",80856,"NAN","NAN","NAN","NAN","NAN","NAN","NAN","NAN",44.63,2.416,-39.42,61.89,972
"2017-07-19 03:20:00",80857,"NAN","NAN","NAN","NAN","NAN","NAN","NAN","NAN",47.22,2.031,-39.86,60.41,972
"2017-07-19 03:30:00",80858,"NAN","NAN","NAN","NAN","NAN","NAN","NAN","NAN",43.73,2.087,-39.86,59.27,973
"2017-07-19 03:40:00",80859,"NAN","NAN","NAN","NAN","NAN","NAN","NAN","NAN",35.64,5.526,-39.79,61.6,973
"2017-07-19 03:50:00",80860,"NAN","NAN","NAN","NAN","NAN","NAN","NAN","NAN",28.63,5.763,-39.49,62.01,973
"2017-07-19 04:00:00",80861,"NAN","NAN","NAN","NAN","NAN","NAN","NAN","NAN",25.55,5.218,-39.79,61.29,972
"2017-07-19 04:10:00",80862,"NAN","NAN","NAN","NAN","NAN","NAN","NAN","NAN",31.14,4.34,-39.83,60.53,972
"2017-07-19 04:20:00",80863,"NAN","NAN","NAN","NAN","NAN","NAN","NAN","NAN",16.48,4.831,-39.79,61.01,972
"2017-07-19 04:30:00",80864,"NAN","NAN","NAN","NAN","NAN","NAN","NAN","NAN",24.39,4.202,-39.73,61.59,972
"2017-07-19 04:40:00",80865,"NAN","NAN","NAN","NAN","NAN","NAN","NAN","NAN",22.73,4.962,-39.59,61.9,972
"2017-07-19 04:50:00",80866,"NAN","NAN","NAN","NAN","NAN","NAN","NAN","NAN",29.01,5.701,-39.66,61.87,972
"2017-07-19 05:00:00",80867,"NAN","NAN","NAN","NAN","NAN","NAN","NAN","NAN",28.67,4.633,-39.79,61.39,973
"2017-07-19 05:10:00",80868,"NAN","NAN","NAN","NAN","NAN","NAN","NAN","NAN",28.03,5.297,-39.79,61.28,973
"2017-07-19 05:20:00",80869,"NAN","NAN","NAN","NAN","NAN","NAN","NAN","NAN",29.31,4.972,-39.55,62.55,973
"2017-07-19 05:30:00",80870,"NAN","NAN","NAN","NAN","NAN","NAN","NAN","NAN",16.09,6.381,-38.66,62.92,973
"2017-07-19 05:40:00",80871,"NAN","NAN","NAN","NAN","NAN","NAN","NAN","NAN",29.01,6.903,-38.18,64.12,973
"2017-07-19 05:50:00",80872,"NAN","NAN","NAN","NAN","NAN","NAN","NAN","NAN",21.8,5.011,-36.91,64.98,973
"2017-07-19 06:00:00",80873,"NAN","NAN","NAN","NAN","NAN","NAN","NAN","NAN",20.38,5.192,-36.47,65.52,973